,,PA_Meas_PMT16A,,PR_Meas_QMR101_102,,RH_Meas_QMH101,,SR_Meas_QMS101,,TA_Meas_QMH101,,GenWind,,GenWind,
time,status,PA,status,PR,status,RH,status,SR,status,TA,status,DirAvg,status,SpdAvg,
2011-01-06, 00:00:04,VALID,917.147,VALID,0,VALID,97.6102,VALID,0,VALID,18.6319,VALID,352,VALID,0.0367187,
2011-01-06, 00:01:04,VALID,917.148,VALID,0,VALID,97.6102,VALID,0,VALID,18.6109,VALID,352,VALID,0,
2011-01-06, 00:02:04,VALID,917.18,VALID,0,VALID,97.6026,VALID,0,VALID,18.6109,VALID,352,VALID,0,
2011-01-06, 00:03:04,VALID,917.145,VALID,0,VALID,97.595,VALID,0,VALID,18.6499,VALID,352,VALID,0.299219,
2011-01-06, 00:04:04,VALID,917.15,VALID,0,VALID,97.595,VALID,0,VALID,18.6499,VALID,352,VALID,0.167969,
2011-01-06, 00:05:04,VALID,917.13,VALID,0,VALID,97.6026,VALID,0,VALID,18.6889,VALID,352,VALID,0,
2011-01-06, 00:06:04,VALID,917.119,VALID,0,VALID,97.6102,VALID,0,VALID,18.6889,VALID,352,VALID,0.502734,
2011-01-06, 00:07:04,VALID,917.102,VALID,0.2,VALID,97.5873,VALID,0,VALID,18.6889,VALID,352,VALID,0.323828,
2011-01-06, 00:08:04,VALID,917.14,VALID,0,VALID,97.6178,VALID,0,VALID,18.7098,VALID,352,VALID,0.0449219,
2011-01-06, 00:09:04,VALID,917.151,VALID,0,VALID,97.6102,VALID,0,VALID,18.7098,VALID,352,VALID,0,
2011-01-06, 00:10:04,VALID,917.167,VALID,0,VALID,97.6026,VALID,0,VALID,18.7084,VALID,352,VALID,0,
2011-01-06, 00:11:04,VALID,917.175,VALID,0,VALID,97.6026,VALID,0,VALID,18.6889,VALID,352,VALID,0,
2011-01-06, 00:12:04,VALID,917.154,VALID,0,VALID,97.5873,VALID,0,VALID,18.6889,VALID,352,VALID,0,
2011-01-06, 00:13:04,VALID,917.164,VALID,0,VALID,97.6026,VALID,0,VALID,18.6499,VALID,352,VALID,0.571094,
2011-01-06, 00:14:04,VALID,917.176,VALID,0,VALID,97.6026,VALID,0,VALID,18.6304,VALID,352,VALID,0.374219,
2011-01-06, 00:15:04,VALID,917.171,VALID,0,VALID,97.595,VALID,0,VALID,18.572,VALID,352,VALID,0.651953,
2011-01-06, 00:16:04,VALID,917.162,VALID,0,VALID,97.5873,VALID,0,VALID,18.5914,VALID,352,VALID,0.205078,
2011-01-06, 00:17:04,VALID,917.148,VALID,0,VALID,97.5797,VALID,0,VALID,18.5914,VALID,352,VALID,0.440625,
2011-01-06, 00:18:04,VALID,917.144,VALID,0,VALID,97.5873,VALID,0,VALID,18.5539,VALID,352,VALID,0.40625,
2011-01-06, 00:19:04,VALID,917.129,VALID,0,VALID,97.595,VALID,0,VALID,18.5734,VALID,352,VALID,0.0785156,
2011-01-06, 00:20:04,VALID,917.119,VALID,0,VALID,97.6102,VALID,0,VALID,18.5929,VALID,352,VALID,0,
2011-01-06, 00:21:04,VALID,917.104,VALID,0,VALID,97.6178,VALID,0,VALID,18.5914,VALID,352,VALID,0.500391,
2011-01-06, 00:22:04,VALID,917.11,VALID,0,VALID,97.6026,VALID,0,VALID,18.5525,VALID,352,VALID,0.473047,
2011-01-06, 00:23:04,VALID,917.081,VALID,0,VALID,97.6026,VALID,0,VALID,18.5344,VALID,352,VALID,0.440625,
2011-01-06, 00:24:04,VALID,917.071,VALID,0,VALID,97.595,VALID,0,VALID,18.5344,VALID,352,VALID,0.512891,
2011-01-06, 00:25:04,VALID,917.033,VALID,0,VALID,97.6102,VALID,0,VALID,18.533,VALID,353,VALID,0.421094,
2011-01-06, 00:26:04,VALID,917.031,VALID,0,VALID,97.595,VALID,0,VALID,18.5135,VALID,353,VALID,0.35625,
2011-01-06, 00:27:04,VALID,917.013,VALID,0,VALID,97.6026,VALID,0,VALID,18.533,VALID,352,VALID,0.652344,
2011-01-06, 00:28:04,VALID,916.997,VALID,0,VALID,97.6102,VALID,0,VALID,18.533,VALID,352,VALID,0.538281,
2011-01-06, 00:29:04,VALID,916.993,VALID,0,VALID,97.6026,VALID,0,VALID,18.5539,VALID,352,VALID,0.527734,
2011-01-06, 00:30:04,VALID,916.987,VALID,0,VALID,97.6026,VALID,0,VALID,18.5135,VALID,352,VALID,0.819141,
2011-01-06, 00:31:04,VALID,916.983,VALID,0,VALID,97.6102,VALID,0,VALID,18.5344,VALID,352,VALID,0.428125,
2011-01-06, 00:32:04,VALID,916.916,VALID,0,VALID,97.595,VALID,0,VALID,18.494,VALID,352,VALID,0.475,
2011-01-06, 00:33:04,VALID,916.938,VALID,0,VALID,97.6102,VALID,0,VALID,18.494,VALID,352,VALID,0.854688,
2011-01-06, 00:34:04,VALID,916.936,VALID,0,VALID,97.6102,VALID,0,VALID,18.494,VALID,352,VALID,0.823047,
2011-01-06, 00:35:04,VALID,916.912,VALID,0,VALID,97.6178,VALID,0,VALID,18.4954,VALID,352,VALID,0.611328,
2011-01-06, 00:36:04,VALID,916.861,VALID,0,VALID,97.6255,VALID,0,VALID,18.4536,VALID,1,VALID,0.724219,
2011-01-06, 00:37:04,VALID,916.862,VALID,0,VALID,97.6102,VALID,0,VALID,18.4745,VALID,21,VALID,1.03203,
2011-01-06, 00:38:04,VALID,916.868,VALID,0,VALID,97.6102,VALID,0,VALID,18.4759,VALID,12,VALID,1.03086,
2011-01-06, 00:39:04,VALID,916.88,VALID,0,VALID,97.5873,VALID,0,VALID,18.455,VALID,16,VALID,0.894922,
2011-01-06, 00:40:04,VALID,916.857,VALID,0,VALID,97.6102,VALID,0,VALID,18.455,VALID,16,VALID,1.14609,
2011-01-06, 00:41:04,VALID,916.828,VALID,0,VALID,97.6102,VALID,0,VALID,18.455,VALID,16,VALID,0.919531,
2011-01-06, 00:42:04,VALID,916.808,VALID,0,VALID,97.6102,VALID,0,VALID,18.4745,VALID,16,VALID,0.622656,
2011-01-06, 00:43:04,VALID,916.794,VALID,0,VALID,97.6255,VALID,0,VALID,18.4954,VALID,16,VALID,0.489062,
2011-01-06, 00:44:04,VALID,916.773,VALID,0,VALID,97.6255,VALID,0,VALID,18.5135,VALID,16,VALID,0.777344,
2011-01-06, 00:45:04,VALID,916.765,VALID,0.2,VALID,97.6255,VALID,0,VALID,18.5135,VALID,16,VALID,0.948047,
2011-01-06, 00:46:04,VALID,916.767,VALID,0,VALID,97.6255,VALID,0,VALID,18.4745,VALID,16,VALID,1.35078,
2011-01-06, 00:47:05,VALID,916.825,VALID,0,VALID,97.6178,VALID,0,VALID,18.4745,VALID,16,VALID,0.314844,
2011-01-06, 00:48:04,VALID,916.798,VALID,0,VALID,97.6255,VALID,0,VALID,18.5149,VALID,16,VALID,0.0515625,
2011-01-06, 00:49:05,VALID,916.771,VALID,0,VALID,97.6407,VALID,0,VALID,18.4745,VALID,16,VALID,0.385156,
2011-01-06, 00:50:05,VALID,916.757,VALID,0,VALID,97.6407,VALID,0,VALID,18.494,VALID,16,VALID,1.09023,
2011-01-06, 00:51:05,VALID,916.778,VALID,0,VALID,97.5797,VALID,0,VALID,18.494,VALID,339,VALID,1.20273,
2011-01-06, 00:52:05,VALID,916.78,VALID,0,VALID,97.6102,VALID,0,VALID,18.4745,VALID,327,VALID,1.0832,
2011-01-06, 00:53:05,VALID,916.765,VALID,0,VALID,97.6026,VALID,0,VALID,18.4745,VALID,327,VALID,0.6875,
2011-01-06, 00:54:05,VALID,916.77,VALID,0,VALID,97.6331,VALID,0.107441,VALID,18.455,VALID,354,VALID,0.85,
2011-01-06, 00:55:05,VALID,916.759,VALID,0,VALID,97.6255,VALID,0,VALID,18.4745,VALID,354,VALID,0.558984,
2011-01-06, 00:56:05,VALID,916.762,VALID,0,VALID,97.6331,VALID,0,VALID,18.4745,VALID,354,VALID,0.575,
2011-01-06, 00:57:05,VALID,916.769,VALID,0,VALID,97.6255,VALID,0,VALID,18.494,VALID,10,VALID,1.37227,
2011-01-06, 00:58:05,VALID,916.731,VALID,0,VALID,97.6407,VALID,0,VALID,18.4954,VALID,16,VALID,0.691016,
2011-01-06, 00:59:05,VALID,916.726,VALID,0,VALID,97.6178,VALID,0,VALID,18.4745,VALID,16,VALID,1.13789,
2011-01-06, 01:00:05,VALID,916.71,VALID,0,VALID,97.6331,VALID,0,VALID,18.4355,VALID,17,VALID,1.83281,
2011-01-06, 01:01:05,VALID,916.707,VALID,0,VALID,97.6255,VALID,0,VALID,18.455,VALID,15,VALID,1.18242,
2011-01-06, 01:02:05,VALID,916.703,VALID,0,VALID,97.6255,VALID,0,VALID,18.4355,VALID,15,VALID,0.978125,
2011-01-06, 01:03:05,VALID,916.698,VALID,0,VALID,97.6255,VALID,0,VALID,18.4355,VALID,15,VALID,0.982813,
2011-01-06, 01:04:05,VALID,916.682,VALID,0,VALID,97.6178,VALID,0,VALID,18.4759,VALID,15,VALID,0.577344,
2011-01-06, 01:05:05,VALID,916.678,VALID,0,VALID,97.6407,VALID,0,VALID,18.455,VALID,15,VALID,0.756641,
2011-01-06, 01:06:05,VALID,916.705,VALID,0,VALID,97.6255,VALID,0,VALID,18.4564,VALID,360,VALID,1.00977,
2011-01-06, 01:07:05,VALID,916.68,VALID,0,VALID,97.6255,VALID,0,VALID,18.4564,VALID,360,VALID,0.647266,
2011-01-06, 01:08:05,VALID,916.669,VALID,0,VALID,97.6331,VALID,0,VALID,18.4564,VALID,360,VALID,0.260156,
2011-01-06, 01:09:05,VALID,916.722,VALID,0,VALID,97.6102,VALID,0,VALID,18.455,VALID,360,VALID,0.118359,
2011-01-06, 01:10:05,VALID,916.676,VALID,0,VALID,97.6255,VALID,0,VALID,18.4954,VALID,360,VALID,0.189453,
2011-01-06, 01:11:05,VALID,916.692,VALID,0,VALID,97.6255,VALID,0,VALID,18.4745,VALID,360,VALID,0.230859,
2011-01-06, 01:12:05,VALID,916.727,VALID,0,VALID,97.6331,VALID,0,VALID,18.5149,VALID,360,VALID,0.423438,
2011-01-06, 01:13:05,VALID,916.713,VALID,0,VALID,97.6255,VALID,0,VALID,18.494,VALID,360,VALID,0,
2011-01-06, 01:14:05,VALID,916.709,VALID,0,VALID,97.6102,VALID,0,VALID,18.455,VALID,360,VALID,0.682422,
2011-01-06, 01:15:05,VALID,916.711,VALID,0,VALID,97.6255,VALID,0,VALID,18.4745,VALID,360,VALID,0.323047,
2011-01-06, 01:16:05,VALID,916.698,VALID,0,VALID,97.6255,VALID,0,VALID,18.494,VALID,360,VALID,0,
2011-01-06, 01:17:05,VALID,916.674,VALID,0,VALID,97.6331,VALID,0,VALID,18.5135,VALID,360,VALID,0.524219,
2011-01-06, 01:18:05,VALID,916.668,VALID,0,VALID,97.6255,VALID,0,VALID,18.494,VALID,360,VALID,0.74375,
2011-01-06, 01:19:05,VALID,916.655,VALID,0,VALID,97.6255,VALID,0,VALID,18.5149,VALID,360,VALID,0.538672,
2011-01-06, 01:20:05,VALID,916.637,VALID,0,VALID,97.6178,VALID,0,VALID,18.4745,VALID,328,VALID,1.13828,
2011-01-06, 01:21:05,VALID,916.645,VALID,0,VALID,97.6102,VALID,0,VALID,18.416,VALID,317,VALID,1.0418,
2011-01-06, 01:22:05,VALID,916.67,VALID,0,VALID,97.6026,VALID,0,VALID,18.4174,VALID,342,VALID,1.01445,
2011-01-06, 01:23:05,VALID,916.654,VALID,0,VALID,97.6255,VALID,0,VALID,18.3965,VALID,342,VALID,0.35,
2011-01-06, 01:24:05,VALID,916.669,VALID,0,VALID,97.6102,VALID,0,VALID,18.4174,VALID,342,VALID,0.800781,
2011-01-06, 01:25:05,VALID,916.645,VALID,0,VALID,97.6178,VALID,0,VALID,18.416,VALID,5,VALID,1.58242,
2011-01-06, 01:26:05,VALID,916.635,VALID,0,VALID,97.6178,VALID,0,VALID,18.3965,VALID,44,VALID,1.36211,
2011-01-06, 01:27:05,VALID,916.647,VALID,0,VALID,97.6102,VALID,0,VALID,18.4174,VALID,353,VALID,1.35586,
2011-01-06, 01:28:05,VALID,916.651,VALID,0,VALID,97.6102,VALID,0,VALID,18.3575,VALID,6,VALID,1.34844,
2011-01-06, 01:29:05,VALID,916.645,VALID,0,VALID,97.6255,VALID,0,VALID,18.3784,VALID,6,VALID,1.20586,
2011-01-06, 01:30:05,VALID,916.618,VALID,0,VALID,97.6026,VALID,0,VALID,18.3784,VALID,6,VALID,0.729297,
2011-01-06, 01:31:05,VALID,916.63,VALID,0,VALID,97.6178,VALID,0,VALID,18.3575,VALID,6,VALID,0.232422,
2011-01-06, 01:32:05,VALID,916.595,VALID,0,VALID,97.6178,VALID,0,VALID,18.3784,VALID,6,VALID,0.0484375,
2011-01-06, 01:33:05,VALID,916.584,VALID,0,VALID,97.6102,VALID,0,VALID,18.377,VALID,6,VALID,0.315625,
2011-01-06, 01:34:05,VALID,916.567,VALID,0,VALID,97.6255,VALID,0,VALID,18.3979,VALID,7,VALID,0.23125,
2011-01-06, 01:35:05,VALID,916.536,VALID,0,VALID,97.6255,VALID,0,VALID,18.377,VALID,7,VALID,0.633203,
2011-01-06, 01:36:05,VALID,916.538,VALID,0,VALID,97.6026,VALID,0,VALID,18.377,VALID,6,VALID,0.705859,
2011-01-06, 01:37:05,VALID,916.523,VALID,0,VALID,97.6026,VALID,0,VALID,18.377,VALID,7,VALID,0.430469,
2011-01-06, 01:38:05,VALID,916.481,VALID,0,VALID,97.6102,VALID,0,VALID,18.377,VALID,6,VALID,0.570703,
2011-01-06, 01:39:05,VALID,916.459,VALID,0,VALID,97.6102,VALID,0,VALID,18.3575,VALID,6,VALID,0.650391,
2011-01-06, 01:40:05,VALID,916.471,VALID,0,VALID,97.6331,VALID,0,VALID,18.3575,VALID,6,VALID,0.701563,
2011-01-06, 01:41:05,VALID,916.438,VALID,0,VALID,97.6026,VALID,0,VALID,18.3185,VALID,6,VALID,0.847266,
2011-01-06, 01:42:05,VALID,916.433,VALID,0,VALID,97.6178,VALID,0,VALID,18.3185,VALID,6,VALID,1.16211,
2011-01-06, 01:43:05,VALID,916.436,VALID,0,VALID,97.595,VALID,0,VALID,18.3185,VALID,6,VALID,0.735937,
2011-01-06, 01:44:05,VALID,916.422,VALID,0,VALID,97.6026,VALID,0,VALID,18.3199,VALID,6,VALID,0.631641,
2011-01-06, 01:45:05,VALID,916.414,VALID,0,VALID,97.6026,VALID,0,VALID,18.3394,VALID,6,VALID,0.525781,
2011-01-06, 01:46:05,VALID,916.385,VALID,0,VALID,97.6178,VALID,0,VALID,18.3394,VALID,6,VALID,1.13125,
2011-01-06, 01:47:05,VALID,916.395,VALID,0,VALID,97.595,VALID,0.107441,VALID,18.3185,VALID,6,VALID,1.08711,
2011-01-06, 01:48:05,VALID,916.37,VALID,0,VALID,97.6026,VALID,0,VALID,18.3185,VALID,6,VALID,0.592969,
2011-01-06, 01:49:05,VALID,916.326,VALID,0,VALID,97.6026,VALID,0,VALID,18.3185,VALID,318,VALID,0.741406,
2011-01-06, 01:50:05,VALID,916.303,VALID,0,VALID,97.6102,VALID,0,VALID,18.3185,VALID,318,VALID,0.330469,
2011-01-06, 01:51:05,VALID,916.321,VALID,0,VALID,97.6026,VALID,0,VALID,18.338,VALID,319,VALID,0.0554687,
2011-01-06, 01:52:05,VALID,916.275,VALID,0,VALID,97.595,VALID,0,VALID,18.3575,VALID,318,VALID,0.403906,
2011-01-06, 01:53:05,VALID,916.318,VALID,0,VALID,97.5873,VALID,0,VALID,18.377,VALID,318,VALID,0.351953,
2011-01-06, 01:54:05,VALID,916.309,VALID,0,VALID,97.6102,VALID,0,VALID,18.3979,VALID,319,VALID,0.441406,
2011-01-06, 01:55:05,VALID,916.297,VALID,0,VALID,97.6102,VALID,0,VALID,18.377,VALID,318,VALID,0.375781,
2011-01-06, 01:56:05,VALID,916.284,VALID,0,VALID,97.6102,VALID,0,VALID,18.3979,VALID,319,VALID,0.398828,
2011-01-06, 01:57:05,VALID,916.294,VALID,0,VALID,97.6178,VALID,0,VALID,18.377,VALID,318,VALID,0.226172,
2011-01-06, 01:58:05,VALID,916.26,VALID,0,VALID,97.6102,VALID,0,VALID,18.4174,VALID,319,VALID,0.15,
2011-01-06, 01:59:05,VALID,916.292,VALID,0,VALID,97.6026,VALID,0,VALID,18.3965,VALID,318,VALID,0.209375,
2011-01-06, 02:00:05,VALID,916.303,VALID,0,VALID,97.6026,VALID,0,VALID,18.3965,VALID,319,VALID,0.327344,
2011-01-06, 02:01:05,VALID,916.284,VALID,0,VALID,97.6102,VALID,0,VALID,18.4174,VALID,319,VALID,0.222266,
2011-01-06, 02:02:05,VALID,916.239,VALID,0,VALID,97.6102,VALID,0,VALID,18.3965,VALID,318,VALID,0.313672,
2011-01-06, 02:03:05,VALID,916.263,VALID,0,VALID,97.6026,VALID,0,VALID,18.3965,VALID,318,VALID,0.370703,
2011-01-06, 02:04:05,VALID,916.216,VALID,0,VALID,97.595,VALID,0,VALID,18.377,VALID,319,VALID,0.644141,
2011-01-06, 02:05:05,VALID,916.248,VALID,0,VALID,97.595,VALID,0,VALID,18.3979,VALID,318,VALID,0.768359,
2011-01-06, 02:06:05,VALID,916.219,VALID,0,VALID,97.595,VALID,0,VALID,18.377,VALID,318,VALID,0.387109,
2011-01-06, 02:07:05,VALID,916.206,VALID,0,VALID,97.6026,VALID,0,VALID,18.377,VALID,319,VALID,0.637109,
2011-01-06, 02:08:05,VALID,916.207,VALID,0,VALID,97.5873,VALID,0,VALID,18.3784,VALID,318,VALID,0.408984,
2011-01-06, 02:09:05,VALID,916.162,VALID,0,VALID,97.595,VALID,0,VALID,18.3575,VALID,318,VALID,0.615234,
2011-01-06, 02:10:05,VALID,916.133,VALID,0,VALID,97.6026,VALID,0,VALID,18.3589,VALID,318,VALID,0.395703,
2011-01-06, 02:11:05,VALID,916.136,VALID,0,VALID,97.5873,VALID,0,VALID,18.338,VALID,318,VALID,0.000390625,
2011-01-06, 02:12:05,VALID,916.132,VALID,0,VALID,97.6178,VALID,0,VALID,18.338,VALID,318,VALID,0.0613281,
2011-01-06, 02:13:05,VALID,916.125,VALID,0,VALID,97.595,VALID,0,VALID,18.3575,VALID,319,VALID,0.224609,
2011-01-06, 02:14:05,VALID,916.128,VALID,0,VALID,97.5873,VALID,0,VALID,18.3784,VALID,319,VALID,0.325781,
2011-01-06, 02:15:05,VALID,916.093,VALID,0,VALID,97.6102,VALID,0.107441,VALID,18.3575,VALID,318,VALID,0.0546875,
2011-01-06, 02:16:05,VALID,916.129,VALID,0,VALID,97.6178,VALID,0,VALID,18.3575,VALID,318,VALID,0,
2011-01-06, 02:17:05,VALID,916.102,VALID,0,VALID,97.6102,VALID,0,VALID,18.3575,VALID,318,VALID,0,
2011-01-06, 02:18:05,VALID,916.084,VALID,0,VALID,97.6102,VALID,0,VALID,18.3575,VALID,318,VALID,0.252344,
2011-01-06, 02:19:05,VALID,916.103,VALID,0,VALID,97.6178,VALID,0,VALID,18.3575,VALID,318,VALID,0.205469,
2011-01-06, 02:20:05,VALID,916.058,VALID,0,VALID,97.6102,VALID,0,VALID,18.3979,VALID,318,VALID,0.0890625,
2011-01-06, 02:21:05,VALID,916.06,VALID,0,VALID,97.6178,VALID,0,VALID,18.3979,VALID,318,VALID,0,
2011-01-06, 02:22:05,VALID,916.046,VALID,0.2,VALID,97.6102,VALID,0,VALID,18.377,VALID,319,VALID,0,
2011-01-06, 02:23:05,VALID,916.04,VALID,0,VALID,97.6102,VALID,0,VALID,18.3979,VALID,319,VALID,0,
2011-01-06, 02:24:05,VALID,916.036,VALID,0,VALID,97.6178,VALID,0,VALID,18.377,VALID,318,VALID,0,
2011-01-06, 02:25:05,VALID,916.012,VALID,0,VALID,97.5873,VALID,0,VALID,18.3575,VALID,318,VALID,0.209766,
2011-01-06, 02:26:05,VALID,915.988,VALID,0,VALID,97.595,VALID,0,VALID,18.3575,VALID,318,VALID,0,
2011-01-06, 02:27:05,VALID,915.945,VALID,0,VALID,97.6102,VALID,0,VALID,18.3784,VALID,318,VALID,0.00195313,
2011-01-06, 02:28:05,VALID,915.91,VALID,0,VALID,97.6102,VALID,0,VALID,18.3575,VALID,318,VALID,0.326172,
2011-01-06, 02:29:05,VALID,915.906,VALID,0,VALID,97.595,VALID,0,VALID,18.3575,VALID,319,VALID,0,
2011-01-06, 02:30:05,VALID,915.9,VALID,0,VALID,97.6026,VALID,0,VALID,18.377,VALID,319,VALID,0,
2011-01-06, 02:31:05,VALID,915.878,VALID,0,VALID,97.6102,VALID,0,VALID,18.377,VALID,318,VALID,0.0808594,
2011-01-06, 02:32:05,VALID,915.854,VALID,0,VALID,97.6026,VALID,0,VALID,18.377,VALID,318,VALID,0,
2011-01-06, 02:33:05,VALID,915.83,VALID,0,VALID,97.6102,VALID,0,VALID,18.3979,VALID,319,VALID,0.0046875,
2011-01-06, 02:34:05,VALID,915.8,VALID,0,VALID,97.595,VALID,0,VALID,18.3575,VALID,318,VALID,0.303906,
2011-01-06, 02:35:05,VALID,915.805,VALID,0,VALID,97.6026,VALID,0,VALID,18.377,VALID,319,VALID,0.31875,
2011-01-06, 02:36:05,VALID,915.793,VALID,0,VALID,97.5797,VALID,0,VALID,18.3965,VALID,318,VALID,0.252734,
2011-01-06, 02:37:05,VALID,915.756,VALID,0,VALID,97.6255,VALID,0,VALID,18.4564,VALID,318,VALID,0.296094,
2011-01-06, 02:38:05,VALID,915.774,VALID,0,VALID,97.595,VALID,0,VALID,18.4355,VALID,319,VALID,0.49375,
2011-01-06, 02:39:05,VALID,915.768,VALID,0,VALID,97.595,VALID,0,VALID,18.377,VALID,318,VALID,0.619141,
2011-01-06, 02:40:05,VALID,915.736,VALID,0.2,VALID,97.5873,VALID,0,VALID,18.3589,VALID,318,VALID,0.817969,
2011-01-06, 02:41:05,VALID,915.684,VALID,0,VALID,97.5797,VALID,0,VALID,18.3185,VALID,319,VALID,0.628906,
2011-01-06, 02:42:05,VALID,915.694,VALID,0,VALID,97.5645,VALID,0,VALID,18.3185,VALID,318,VALID,0.498047,
2011-01-06, 02:43:05,VALID,915.698,VALID,0,VALID,97.5873,VALID,0,VALID,18.338,VALID,318,VALID,0.689453,
2011-01-06, 02:44:05,VALID,915.699,VALID,0,VALID,97.5797,VALID,0,VALID,18.299,VALID,319,VALID,0.841016,
2011-01-06, 02:45:05,VALID,915.693,VALID,0,VALID,97.5873,VALID,0,VALID,18.299,VALID,319,VALID,0.624219,
2011-01-06, 02:46:05,VALID,915.646,VALID,0,VALID,97.5645,VALID,0,VALID,18.299,VALID,318,VALID,0.731641,
2011-01-06, 02:47:05,VALID,915.694,VALID,0,VALID,97.5721,VALID,0,VALID,18.3199,VALID,319,VALID,0.617578,
2011-01-06, 02:48:05,VALID,915.696,VALID,0,VALID,97.5721,VALID,0,VALID,18.2796,VALID,318,VALID,0.412109,
2011-01-06, 02:49:05,VALID,915.701,VALID,0,VALID,97.5645,VALID,0,VALID,18.2796,VALID,318,VALID,0.817578,
2011-01-06, 02:50:05,VALID,915.697,VALID,0,VALID,97.5721,VALID,0,VALID,18.299,VALID,318,VALID,0.519922,
2011-01-06, 02:51:05,VALID,915.702,VALID,0,VALID,97.5721,VALID,0,VALID,18.3199,VALID,344,VALID,0.994141,
2011-01-06, 02:52:05,VALID,915.722,VALID,0,VALID,97.5645,VALID,0,VALID,18.2601,VALID,351,VALID,0.708203,
2011-01-06, 02:53:05,VALID,915.695,VALID,0.2,VALID,97.5645,VALID,0,VALID,18.2796,VALID,351,VALID,0.584766,
2011-01-06, 02:54:05,VALID,915.694,VALID,0,VALID,97.5797,VALID,0,VALID,18.3199,VALID,23,VALID,0.907422,
2011-01-06, 02:55:05,VALID,915.711,VALID,0,VALID,97.5569,VALID,0,VALID,18.299,VALID,23,VALID,0.871094,
2011-01-06, 02:56:05,VALID,915.703,VALID,0,VALID,97.5492,VALID,0,VALID,18.299,VALID,354,VALID,0.86875,
2011-01-06, 02:57:05,VALID,915.701,VALID,0,VALID,97.5492,VALID,0,VALID,18.299,VALID,354,VALID,0.682813,
2011-01-06, 02:58:05,VALID,915.643,VALID,0,VALID,97.5492,VALID,0,VALID,18.3199,VALID,359,VALID,1.06172,
2011-01-06, 02:59:05,VALID,915.692,VALID,0,VALID,97.5569,VALID,0,VALID,18.3394,VALID,10,VALID,0.933984,
2011-01-06, 03:00:05,VALID,915.648,VALID,0,VALID,97.5416,VALID,0,VALID,18.3185,VALID,10,VALID,1.14609,
2011-01-06, 03:01:05,VALID,915.631,VALID,0,VALID,97.5111,VALID,0,VALID,18.3394,VALID,10,VALID,0.671484,
2011-01-06, 03:02:05,VALID,915.637,VALID,0,VALID,97.5416,VALID,0,VALID,18.338,VALID,10,VALID,0.0289063,
2011-01-06, 03:03:05,VALID,915.637,VALID,0,VALID,97.5035,VALID,0,VALID,18.3784,VALID,10,VALID,0.785156,
2011-01-06, 03:04:05,VALID,915.624,VALID,0,VALID,97.5187,VALID,0,VALID,18.3185,VALID,10,VALID,0.864844,
2011-01-06, 03:05:05,VALID,915.645,VALID,0,VALID,97.5035,VALID,0,VALID,18.3394,VALID,10,VALID,0.711719,
2011-01-06, 03:06:05,VALID,915.595,VALID,0,VALID,97.5035,VALID,0,VALID,18.338,VALID,10,VALID,1.20938,
2011-01-06, 03:07:05,VALID,915.625,VALID,0.2,VALID,97.5111,VALID,0,VALID,18.3185,VALID,10,VALID,0.914453,
2011-01-06, 03:08:05,VALID,915.622,VALID,0,VALID,97.5187,VALID,0,VALID,18.338,VALID,10,VALID,0.723047,
2011-01-06, 03:09:05,VALID,915.631,VALID,0,VALID,97.5035,VALID,0,VALID,18.3185,VALID,10,VALID,0.417578,
2011-01-06, 03:10:05,VALID,915.615,VALID,0,VALID,97.5264,VALID,0,VALID,18.338,VALID,10,VALID,0.634375,
2011-01-06, 03:11:05,VALID,915.598,VALID,0,VALID,97.534,VALID,0,VALID,18.3575,VALID,10,VALID,0.358594,
2011-01-06, 03:12:05,VALID,915.588,VALID,0,VALID,97.5492,VALID,0,VALID,18.3784,VALID,10,VALID,0.628516,
2011-01-06, 03:13:05,VALID,915.582,VALID,0,VALID,97.534,VALID,0,VALID,18.3965,VALID,10,VALID,0.676953,
2011-01-06, 03:14:05,VALID,915.597,VALID,0,VALID,97.5416,VALID,0,VALID,18.377,VALID,10,VALID,0.114063,
2011-01-06, 03:15:05,VALID,915.579,VALID,0,VALID,97.5416,VALID,0,VALID,18.416,VALID,10,VALID,0,
2011-01-06, 03:16:05,VALID,915.594,VALID,0,VALID,97.5416,VALID,0,VALID,18.4369,VALID,10,VALID,0.719922,
2011-01-06, 03:17:05,VALID,915.542,VALID,0,VALID,97.5111,VALID,0,VALID,18.4174,VALID,10,VALID,0.624609,
2011-01-06, 03:18:05,VALID,915.586,VALID,0.2,VALID,97.4654,VALID,0,VALID,18.377,VALID,10,VALID,0.652344,
2011-01-06, 03:19:05,VALID,915.543,VALID,0,VALID,97.5035,VALID,0,VALID,18.3575,VALID,10,VALID,0.4125,
2011-01-06, 03:20:05,VALID,915.596,VALID,0,VALID,97.534,VALID,0,VALID,18.3575,VALID,10,VALID,0.0855469,
2011-01-06, 03:21:05,VALID,915.581,VALID,0,VALID,97.5187,VALID,0,VALID,18.3575,VALID,350,VALID,0.596094,
2011-01-06, 03:22:05,VALID,915.531,VALID,0,VALID,97.5035,VALID,0,VALID,18.3575,VALID,15,VALID,1.34766,
2011-01-06, 03:23:05,VALID,915.528,VALID,0,VALID,97.5035,VALID,0,VALID,18.3589,VALID,15,VALID,1.34766,
2011-01-06, 03:24:05,VALID,915.535,VALID,0,VALID,97.5416,VALID,0,VALID,18.3784,VALID,8,VALID,0.957422,
2011-01-06, 03:25:05,VALID,915.535,VALID,0,VALID,97.5264,VALID,0,VALID,18.377,VALID,8,VALID,0.84375,
2011-01-06, 03:26:05,VALID,915.536,VALID,0,VALID,97.5035,VALID,0,VALID,18.338,VALID,352,VALID,0.263281,
2011-01-06, 03:27:05,VALID,915.481,VALID,0,VALID,97.5416,VALID,0,VALID,18.3979,VALID,352,VALID,1.13086,
2011-01-06, 03:28:05,VALID,915.502,VALID,0,VALID,97.5264,VALID,0,VALID,18.377,VALID,352,VALID,0.453906,
2011-01-06, 03:29:05,VALID,915.487,VALID,0.2,VALID,97.5187,VALID,0,VALID,18.3965,VALID,352,VALID,0.678516,
2011-01-06, 03:30:05,VALID,915.444,VALID,0,VALID,97.4882,VALID,0,VALID,18.3965,VALID,15,VALID,1.79922,
2011-01-06, 03:31:05,VALID,915.467,VALID,0,VALID,97.5111,VALID,0,VALID,18.377,VALID,20,VALID,0.886719,
2011-01-06, 03:32:05,VALID,915.464,VALID,0,VALID,97.4806,VALID,0,VALID,18.377,VALID,20,VALID,0.885938,
2011-01-06, 03:33:05,VALID,915.438,VALID,0,VALID,97.4959,VALID,0,VALID,18.377,VALID,360,VALID,1.43633,
2011-01-06, 03:34:05,VALID,915.438,VALID,0,VALID,97.4959,VALID,0,VALID,18.3575,VALID,352,VALID,0.701563,
2011-01-06, 03:35:04,VALID,915.461,VALID,0,VALID,97.4959,VALID,0,VALID,18.377,VALID,23,VALID,1.21016,
2011-01-06, 03:36:04,VALID,915.453,VALID,0,VALID,97.4806,VALID,0,VALID,18.3979,VALID,13,VALID,1.09297,
2011-01-06, 03:37:04,VALID,915.457,VALID,0,VALID,97.5111,VALID,0,VALID,18.4174,VALID,13,VALID,0.300781,
2011-01-06, 03:38:04,VALID,915.446,VALID,0,VALID,97.4959,VALID,0,VALID,18.4174,VALID,13,VALID,0.777734,
2011-01-06, 03:39:04,VALID,915.455,VALID,0,VALID,97.4959,VALID,0,VALID,18.4174,VALID,14,VALID,1.07187,
2011-01-06, 03:40:04,VALID,915.438,VALID,0,VALID,97.4959,VALID,0,VALID,18.4355,VALID,13,VALID,1.11445,
2011-01-06, 03:41:04,VALID,915.434,VALID,0,VALID,97.5035,VALID,0,VALID,18.416,VALID,25,VALID,1.56523,
2011-01-06, 03:42:04,VALID,915.423,VALID,0,VALID,97.4959,VALID,0,VALID,18.4174,VALID,24,VALID,1.65781,
2011-01-06, 03:43:04,VALID,915.426,VALID,0,VALID,97.5187,VALID,0,VALID,18.416,VALID,24,VALID,0.662109,
2011-01-06, 03:44:04,VALID,915.402,VALID,0,VALID,97.534,VALID,0,VALID,18.4564,VALID,24,VALID,1.30547,
2011-01-06, 03:45:04,VALID,915.415,VALID,0,VALID,97.5111,VALID,0,VALID,18.4355,VALID,24,VALID,1.26836,
2011-01-06, 03:46:04,VALID,915.431,VALID,0,VALID,97.5187,VALID,0,VALID,18.4564,VALID,20,VALID,1.13828,
2011-01-06, 03:47:04,VALID,915.409,VALID,0,VALID,97.5187,VALID,0,VALID,18.455,VALID,20,VALID,1.57734,